Location: El Bakhil
(32.7726°N, 5.5387°W)
Time: 06:51:29
(UTC+00:00)

AO-73 - Pass Details

Date: 09 August 2021
Orbit: 581 x 661 km, 97.6° (Epoch: 27 September)

Event Time Altitude Azimuth Distance (km) Brightness Sun altitude
Rises 04:08:58 0° 30° (NNE) 2,986 ? -18.2°
Reaches altitude 10° 04:11:43 10° 47° (NE) 2,077 ? -17.8°
Maximum altitude 04:15:04 20° 95° (E) 1,518 ? -17.2°
Drops below altitude 10° 04:18:23 10° 142° (SE) 2,072 ? -16.6°
Sets 04:21:07 0° 159° (SSE) 2,977 ? -16.1°
